Notices

What's New in latest Release from April 7th, 2021:

- Updated Glossary, including Speed of Maximum Gust, and Total Hourly Precipitation

- Updated national and regional climate services offices contacts and prices information

- Addition of station inventory lists for 1981-2010, 1971-2000, and 1961-1990 Normals.

If you haven't already, please take our survey and provide feedback about our website: https://eccc.sondage-survey.ca/f/LanguageSelection.aspx?s=442ca660-fcf1-47c0-95a9-59707d6fd709

Hourly Data Report for March 27, 2017

MIRAMICHI RCS
NEW BRUNSWICK

47°00'34.000" N
65°27'54.000" W
33.00 m
8100989
71744
ACQ

Download Data

Hourly Data (March 2017)
Hourly Data Report for March 27, 2017
TIME
LST
Temp Definition
°C
Dew Point Definition
°C
Rel Hum Definition
%
Precip. Amount Definition
mm

Wind Dir Definition
10's deg

Wind Spd Definition
km/h
Visibility Definition
km
Stn Press Definition
kPa
Hmdx Definition


Wind Chill Definition


Weather Definition


00:00 -5.0 -20.0 30 0.0 36 4   102.73   -7 LegendNANA
01:00 -5.4 -20.4 30 0.0 32 4   102.71   -7 LegendNANA
02:00 -5.8 -18.5 36 0.0 33 5   102.72   -8 LegendNANA
03:00 -6.1 -17.8 39 0.0 36 6   102.68   -9 LegendNANA
04:00 -6.7 -15.6 49 0.0 1 2   102.67   -8 LegendNANA
05:00 -6.7 -14.4 54 0.0 3 4   102.65   -9 LegendNANA
06:00 -6.6 -14.3 55 0.0   0   102.70     LegendNANA
07:00 -6.4 -12.5 62 0.0   0   102.71     LegendNANA
08:00 -5.5 -11.5 63 0.0 8 2   102.70   -6 LegendNANA
09:00 -4.4 -11.0 60 0.0 9 8   102.66   -8 LegendNANA
10:00 -2.9 -11.0 54 0.0 12 11   102.64   -7 LegendNANA
11:00 -2.4 -12.1 47 0.0 15 10   102.62   -6 LegendNANA
12:00 -2.0 -11.2 49 0.0 15 5   102.56   -4 LegendNANA
13:00 -2.6 -8.7 63 0.0 14 6   102.49   -5 LegendNANA
14:00 -2.0 -9.2 58 0.0 11 6   102.42   -4 LegendNANA
15:00 -2.1 -9.8 56 0.0 11 8   102.34   -5 LegendNANA
16:00 -2.3 -8.5 62 0.0 7 11   102.25   -6 LegendNANA
17:00 -2.5 -8.1 65 0.0 9 12   102.19   -7 LegendNANA
18:00 -3.3 -6.7 78 0.0 11 13   102.17   -8 LegendNANA
19:00 -4.0 -5.8 88 0.0 10 16   102.14   -10 LegendNANA
20:00 -4.5 -5.8 91 0.7 10 15   102.13   -10 LegendNANA
21:00 -4.6 -5.8 91 0.3 8 12   102.09   -9 LegendNANA
22:00 -4.5 -5.5 93 1.3 6 11   102.02   -9 LegendNANA
23:00 -4.5 -5.6 92 0.3 7 10   101.96   -9 LegendNANA

Notes on Data Quality.

Legend

  • E = Estimated
  • M = Missing
  • NA = Not Available*
  • [empty] = Indicates an unobserved value
Date modified: